DLH4714 EDDS-EDDM

Flight info

Callsign DLH4714
Flight time 0h 30m
Altitude 21000
Route ABTAL4B ABTAL L173 RIXED Y161 RIDAR Z98 WLD T104 ROKIL ROKIL1B
Aircraft A320/M-SDE3FGHIRWY/LB1

Departure

Time 2026-05-05 19:44
Airport Stuttgart Airport (EDDS)

Arrival

Time 2026-05-05 20:14
Airport Munich Airport (EDDM)
Time Latitude Longitude Altitude Speed Heading
2026-05-05 19:03 48.68868 9.19289 1288 ft 0 kts 344°
2026-05-05 19:29 48.68867 9.19290 1286 ft 2 kts 344°
2026-05-05 19:29 48.68854 9.19296 1290 ft 2 kts 345°
2026-05-05 19:29 48.68841 9.19301 1288 ft 2 kts 346°
2026-05-05 19:29 48.68827 9.19306 1291 ft 2 kts 348°
2026-05-05 19:30 48.68814 9.19310 1290 ft 2 kts 354°
2026-05-05 19:30 48.68801 9.19311 1287 ft 2 kts 15°
2026-05-05 19:30 48.68791 9.19305 1287 ft 2 kts 58°
2026-05-05 19:30 48.68786 9.19290 1291 ft 2 kts 73°
2026-05-05 19:31 48.68783 9.19273 1290 ft 2 kts 75°
2026-05-05 19:31 48.68780 9.19257 1290 ft 1 kts 74°
2026-05-05 19:31 48.68778 9.19249 1290 ft 1 kts 74°
2026-05-05 19:31 48.68778 9.19246 1288 ft 0 kts 73°
2026-05-05 19:33 48.68783 9.19273 1289 ft 7 kts 73°
2026-05-05 19:33 48.68796 9.19337 1287 ft 6 kts 73°
2026-05-05 19:33 48.68806 9.19388 1290 ft 5 kts 74°
2026-05-05 19:34 48.68814 9.19430 1287 ft 4 kts 73°
2026-05-05 19:34 48.68821 9.19471 1289 ft 8 kts 74°
2026-05-05 19:34 48.68844 9.19590 1285 ft 12 kts 74°
2026-05-05 19:35 48.68883 9.19802 1285 ft 9 kts 75°
2026-05-05 19:35 48.68869 9.19875 1287 ft 7 kts 145°
2026-05-05 19:35 48.68830 9.19901 1290 ft 6 kts 141°
2026-05-05 19:35 48.68826 9.19977 1285 ft 10 kts 72°
2026-05-05 19:36 48.68847 9.20080 1290 ft 10 kts 76°
2026-05-05 19:36 48.68862 9.20172 1290 ft 8 kts 76°
2026-05-05 19:36 48.68878 9.20258 1287 ft 11 kts 73°
2026-05-05 19:36 48.68904 9.20390 1290 ft 15 kts 73°
2026-05-05 19:37 48.68935 9.20549 1287 ft 17 kts 73°
2026-05-05 19:37 48.68969 9.20734 1287 ft 19 kts 75°
2026-05-05 19:37 48.69008 9.20935 1285 ft 21 kts 73°
2026-05-05 19:37 48.69049 9.21153 1289 ft 22 kts 74°
2026-05-05 19:38 48.69093 9.21389 1288 ft 24 kts 74°
2026-05-05 19:38 48.69138 9.21641 1289 ft 26 kts 75°
2026-05-05 19:38 48.69191 9.21908 1285 ft 27 kts 72°
2026-05-05 19:38 48.69246 9.22186 1285 ft 28 kts 74°
2026-05-05 19:39 48.69300 9.22477 1286 ft 29 kts 74°
2026-05-05 19:39 48.69357 9.22776 1285 ft 30 kts 74°
2026-05-05 19:39 48.69415 9.23082 1287 ft 27 kts 74°
2026-05-05 19:39 48.69470 9.23366 1287 ft 29 kts 74°
2026-05-05 19:40 48.69524 9.23654 1289 ft 28 kts 74°
2026-05-05 19:40 48.69578 9.23943 1286 ft 29 kts 74°
2026-05-05 19:40 48.69605 9.24172 1289 ft 16 kts 111°
2026-05-05 19:40 48.69547 9.24295 1285 ft 11 kts 148°
2026-05-05 19:41 48.69511 9.24311 1287 ft 0 kts 169°
2026-05-05 19:41 48.69503 9.24313 1285 ft 5 kts 169°
2026-05-05 19:41 48.69452 9.24329 1286 ft 7 kts 168°
2026-05-05 19:42 48.69405 9.24339 1285 ft 7 kts 185°
2026-05-05 19:42 48.69386 9.24291 1285 ft 0 kts 256°
2026-05-05 19:43 48.69385 9.24284 1285 ft 5 kts 256°
2026-05-05 19:43 48.69328 9.23982 1285 ft 68 kts 253°
2026-05-05 19:43 48.69202 9.23324 1289 ft 116 kts 254°
2026-05-05 19:43 48.68930 9.21900 1315 ft 165 kts 252°
2026-05-05 19:44 48.68620 9.20209 2062 ft 159 kts 255°
2026-05-05 19:44 48.68348 9.18656 2822 ft 143 kts 253°
2026-05-05 19:44 48.68067 9.17148 3157 ft 157 kts 253°
2026-05-05 19:44 48.67755 9.15486 3543 ft 174 kts 253°
2026-05-05 19:45 48.67396 9.13586 3754 ft 204 kts 253°
2026-05-05 19:45 48.66966 9.11379 4215 ft 224 kts 249°
2026-05-05 19:45 48.66057 9.09469 5069 ft 234 kts 216°
2026-05-05 19:45 48.64477 9.08780 5937 ft 248 kts 181°
2026-05-05 19:46 48.62819 9.09663 6818 ft 263 kts 152°
2026-05-05 19:46 48.61490 9.11618 7662 ft 278 kts 123°
2026-05-05 19:46 48.60982 9.14484 8434 ft 296 kts 92°
2026-05-05 19:46 48.61225 9.17614 9122 ft 307 kts 83°
2026-05-05 19:47 48.61509 9.20843 9915 ft 313 kts 85°
2026-05-05 19:47 48.61770 9.24269 10301 ft 336 kts 83°
2026-05-05 19:47 48.62391 9.27805 10551 ft 362 kts 69°
2026-05-05 19:47 48.63389 9.31354 10953 ft 377 kts 67°
2026-05-05 19:48 48.64445 9.35071 11674 ft 383 kts 67°
2026-05-05 19:48 48.65480 9.38734 12435 ft 386 kts 67°
2026-05-05 19:48 48.66542 9.42497 13216 ft 390 kts 68°
2026-05-05 19:48 48.67605 9.46276 13932 ft 393 kts 68°
2026-05-05 19:49 48.68674 9.50095 14638 ft 396 kts 68°
2026-05-05 19:49 48.69753 9.53952 15327 ft 398 kts 68°
2026-05-05 19:49 48.70833 9.57822 16011 ft 401 kts 68°
2026-05-05 19:49 48.71925 9.61733 16706 ft 403 kts 68°
2026-05-05 19:50 48.73021 9.65654 17399 ft 406 kts 68°
2026-05-05 19:50 48.74111 9.69549 17716 ft 399 kts 68°
2026-05-05 19:50 48.75211 9.73488 18231 ft 407 kts 68°
2026-05-05 19:50 48.76330 9.77514 18788 ft 411 kts 69°
2026-05-05 19:51 48.77439 9.81523 19381 ft 414 kts 69°
2026-05-05 19:51 48.78553 9.85567 19967 ft 416 kts 69°
2026-05-05 19:51 48.79657 9.89574 20535 ft 419 kts 69°
2026-05-05 19:51 48.80797 9.93711 20789 ft 420 kts 69°
2026-05-05 19:52 48.81934 9.97845 20848 ft 432 kts 69°
2026-05-05 19:52 48.83089 10.02053 20843 ft 442 kts 69°
2026-05-05 19:52 48.84179 10.06417 20843 ft 443 kts 75°
2026-05-05 19:52 48.84817 10.10980 20847 ft 441 kts 86°
2026-05-05 19:53 48.84772 10.15604 20853 ft 437 kts 101°
2026-05-05 19:53 48.83968 10.20018 20859 ft 433 kts 114°
2026-05-05 19:53 48.82811 10.24223 20858 ft 433 kts 115°
2026-05-05 19:53 48.81620 10.28425 20859 ft 433 kts 115°
2026-05-05 19:54 48.80416 10.32598 20860 ft 433 kts 116°
2026-05-05 19:54 48.79203 10.36781 20860 ft 433 kts 116°
2026-05-05 19:54 48.77992 10.40964 20860 ft 433 kts 116°
2026-05-05 19:54 48.76788 10.45133 20856 ft 433 kts 116°
2026-05-05 19:55 48.75580 10.49314 20855 ft 433 kts 116°
2026-05-05 19:55 48.74365 10.53492 20851 ft 433 kts 117°
2026-05-05 19:55 48.72879 10.57439 20849 ft 430 kts 126°
2026-05-05 19:55 48.71019 10.60942 20847 ft 428 kts 135°
2026-05-05 19:56 48.68975 10.64186 20573 ft 419 kts 135°
2026-05-05 19:56 48.67009 10.67382 20019 ft 413 kts 131°
2026-05-05 19:56 48.65500 10.71065 19426 ft 413 kts 117°
2026-05-05 19:56 48.64331 10.75011 18811 ft 411 kts 116°
2026-05-05 19:57 48.63188 10.78948 18228 ft 408 kts 116°
2026-05-05 19:57 48.62063 10.82869 17592 ft 406 kts 115°
2026-05-05 19:57 48.60943 10.86777 16969 ft 403 kts 115°
2026-05-05 19:57 48.59826 10.90654 16363 ft 401 kts 116°
2026-05-05 19:58 48.58711 10.94493 15773 ft 398 kts 116°
2026-05-05 19:58 48.57596 10.98308 15181 ft 396 kts 116°
2026-05-05 19:58 48.56486 11.02093 14619 ft 393 kts 116°
2026-05-05 19:58 48.55396 11.05814 14057 ft 391 kts 116°
2026-05-05 19:59 48.54302 11.09539 13689 ft 383 kts 116°
2026-05-05 19:59 48.53245 11.13137 13558 ft 368 kts 116°
2026-05-05 19:59 48.52300 11.16664 13393 ft 357 kts 109°
2026-05-05 19:59 48.51850 11.20324 13027 ft 355 kts 95°
2026-05-05 20:00 48.51971 11.24024 12568 ft 355 kts 82°
2026-05-05 20:00 48.52488 11.27646 12096 ft 353 kts 78°
2026-05-05 20:00 48.53011 11.31265 11623 ft 351 kts 79°
2026-05-05 20:00 48.53326 11.33474 11334 ft 351 kts 79°
2026-05-05 20:01 48.53834 11.37060 10919 ft 349 kts 79°
2026-05-05 20:01 48.54337 11.40637 10670 ft 349 kts 79°
2026-05-05 20:01 48.54843 11.44228 10428 ft 349 kts 79°
2026-05-05 20:01 48.55348 11.47808 10219 ft 347 kts 79°
2026-05-05 20:02 48.55834 11.51258 10093 ft 334 kts 79°
2026-05-05 20:02 48.56309 11.54625 9964 ft 322 kts 79°
2026-05-05 20:02 48.56689 11.57901 9747 ft 314 kts 88°
2026-05-05 20:02 48.56579 11.61158 9621 ft 309 kts 103°
2026-05-05 20:03 48.55992 11.64248 9494 ft 306 kts 112°
2026-05-05 20:03 48.55291 11.67280 9266 ft 305 kts 112°
2026-05-05 20:03 48.54600 11.70291 9016 ft 303 kts 112°
2026-05-05 20:03 48.53910 11.73298 8742 ft 302 kts 112°
2026-05-05 20:04 48.53223 11.76290 8465 ft 301 kts 112°
2026-05-05 20:04 48.52540 11.79263 8196 ft 299 kts 112°
2026-05-05 20:04 48.51858 11.82221 7921 ft 298 kts 112°
2026-05-05 20:04 48.51179 11.85163 7663 ft 297 kts 111°
2026-05-05 20:05 48.50498 11.88098 7396 ft 296 kts 111°
2026-05-05 20:05 48.49817 11.91031 7124 ft 295 kts 111°
2026-05-05 20:05 48.49144 11.93939 6863 ft 294 kts 111°
2026-05-05 20:05 48.48472 11.96846 6591 ft 293 kts 111°
2026-05-05 20:06 48.47801 11.99745 6327 ft 292 kts 111°
2026-05-05 20:06 48.47132 12.02620 6054 ft 291 kts 111°
2026-05-05 20:06 48.46462 12.05491 5775 ft 290 kts 111°
2026-05-05 20:06 48.45805 12.08290 5668 ft 276 kts 111°
2026-05-05 20:07 48.45179 12.10960 5553 ft 263 kts 111°
2026-05-05 20:07 48.44584 12.13492 5434 ft 251 kts 111°
2026-05-05 20:07 48.43881 12.15826 5334 ft 240 kts 131°
2026-05-05 20:07 48.42616 12.17301 5240 ft 230 kts 165°
2026-05-05 20:08 48.41078 12.17467 5133 ft 220 kts 199°
2026-05-05 20:08 48.39795 12.16378 5043 ft 211 kts 231°
2026-05-05 20:08 48.39119 12.14487 5015 ft 206 kts 260°
2026-05-05 20:08 48.38933 12.12344 5022 ft 205 kts 265°
2026-05-05 20:09 48.38792 12.10293 5007 ft 191 kts 265°
2026-05-05 20:09 48.38651 12.08334 4864 ft 186 kts 264°
2026-05-05 20:09 48.38509 12.06405 4645 ft 185 kts 264°
2026-05-05 20:09 48.38368 12.04499 4400 ft 183 kts 264°
2026-05-05 20:10 48.38228 12.02604 4201 ft 180 kts 264°
2026-05-05 20:10 48.38090 12.00750 3933 ft 176 kts 264°
2026-05-05 20:10 48.37956 11.98952 3698 ft 171 kts 265°
2026-05-05 20:10 48.37825 11.97212 3473 ft 164 kts 265°
2026-05-05 20:11 48.37703 11.95580 3268 ft 156 kts 265°
2026-05-05 20:11 48.37583 11.93972 3076 ft 154 kts 265°
2026-05-05 20:11 48.37464 11.92395 2891 ft 145 kts 265°
2026-05-05 20:11 48.37352 11.90938 2708 ft 138 kts 264°
2026-05-05 20:12 48.37245 11.89530 2469 ft 134 kts 264°
2026-05-05 20:12 48.37141 11.88134 2300 ft 133 kts 264°
2026-05-05 20:12 48.37040 11.86748 2116 ft 133 kts 264°
2026-05-05 20:12 48.36934 11.85362 1928 ft 135 kts 264°
2026-05-05 20:13 48.36823 11.83933 1783 ft 139 kts 264°
2026-05-05 20:13 48.36717 11.82491 1575 ft 138 kts 265°
2026-05-05 20:13 48.36615 11.81103 1485 ft 119 kts 264°
2026-05-05 20:13 48.36536 11.80154 1476 ft 62 kts 263°
2026-05-05 20:14 48.36481 11.79770 1481 ft 27 kts 238°
2026-05-05 20:14 48.36381 11.79559 1482 ft 19 kts 232°
2026-05-05 20:14 48.36299 11.79393 1485 ft 20 kts 234°
2026-05-05 20:14 48.36269 11.79332 1480 ft 5 kts 234°
2026-05-05 20:15 48.36249 11.79298 1477 ft 4 kts 221°
2026-05-05 20:15 48.36230 11.79285 1483 ft 3 kts 187°
2026-05-05 20:15 48.36167 11.79301 1480 ft 13 kts 172°
2026-05-05 20:15 48.36105 11.79312 1480 ft 7 kts 173°
2026-05-05 20:16 48.36079 11.79317 1485 ft 0 kts 173°
2026-05-05 20:16 48.36065 11.79319 1475 ft 2 kts 173°
2026-05-05 20:16 48.36052 11.79321 1478 ft 4 kts 173°
2026-05-05 20:17 48.35993 11.79332 1484 ft 9 kts 173°
2026-05-05 20:17 48.35975 11.79335 1486 ft 2 kts 173°
2026-05-05 20:17 48.35969 11.79340 1476 ft 0 kts 141°